Aureole 3 Rocket - Orbit

View from above orbital plane
View from above orbital plane
View from above satellite
View from above satellite

Ground track
Ground track

The orbit data is extracted from the following two-line orbital elements,

1 12849U 81094B   13168.67061194  .00001001  00000-0  92601-4 0  6271
2 12849 082.4922 205.2341 0916863 014.4045 348.1438 13.46935699545034
Epoch (UTC): 17 June 2013 16:05:40
Eccentricity: 0.0916863
inclination: 82.4922°
perigee height: 399 km
apogee height: 1767 km
right ascension of ascending node: 205.2341°
argument of perigee: 14.4045°
revolutions per day: 13.46935699
mean anomaly at epoch: 348.1438°
orbit number at epoch: 54503

The dashed part of the orbit path shows where the satellite is in the earth's shadow,  

Developed and maintained by Chris Peat, Heavens-Above GmbH. Please read the updated FAQ before sending e-mail. Imprint. DLR